User: anonymous   Login
Location: Fort Wayne
(41.1310°N, 85.1290°W)
Time: 21:16:36
(UTC-04:00)
Language:

Oscar 19 - Orbit

View from above orbital plane
View from above orbital plane
View from above satellite
View from above satellite

Ground track
Ground track

The orbit data is extracted from the following two-line orbital elements,

1 20442U 90005G   17118.42476561 +.00000023 +00000-0 +24620-4 0  9992
2 20442 098.5731 055.4522 0010746 298.0783 061.9314 14.32857244424492
Epoch (UTC): 28 April 2017 10:11:39
Eccentricity: 0.0010746
inclination: 98.5731°
perigee height: 774 km
apogee height: 790 km
right ascension of ascending node: 55.4522°
argument of perigee: 298.0783°
revolutions per day: 14.32857244
mean anomaly at epoch: 61.9314°
orbit number at epoch: 42449

The dashed part of the orbit path shows where the satellite is in the earth's shadow,  

DLR